Чибижек

Россия / Красноярский край     54°24′02″N   93°38′37″E
темп.,
°C
ветер,
м/с
пор.,
м/с
влажн.,
%
обл.,
%
осадки,
мм/ч
давл.,
гПа
погр.,
м
12 мая, ср
ср1201:00+4св3374100 0.0 101662
04:00+3св3575100 0.0 101586
07:00+6св2562100 0.0 1014152
10:00+9св366235 0.0 1014814
13:00+12св345629 0.0 10131763
16:00+12ссв445810 0.1 10121788
19:00+8ссв48660 0.1 1014633
22:00+1ссв35820 0.0 101775
13 мая, чт
чт1301:00−1св22840 0.0 101839
04:00−3св22870 0.0 101832
07:00+3св22680 0.0 1017157
10:00+10всв11450 0.0 1015975
13:00+13в11360 0.0 10131677
16:00+14в12345 0.0 10122032
19:00+11юв12565 0.0 1012101
22:00+4в118142 0.0 101410
14 мая, пт
пт1401:00+3в1180100 0.0 101410
04:00+2вюв1177100 0.0 101410
07:00+6ююв126494 0.0 1013119
10:00+11ююз354673 0.0 1011980
13:00+12ююз474782 0.0 10101445
16:00+4сз51096100 3.7 1013578
19:00+3с1193100 10.6 1015241
22:00+2сз259599 0.4 1020476
15 мая, сб
сб1501:00+2сз259198 1.6 1022490
04:00−2сз119393 0.0 102510
07:00+1ююз248385 0.0 1026385
10:00+3юз5868100 0.1 10251349
13:00+6юз6957100 0.1 10241358
16:00+6ююз4970100 0.1 1023948
19:00+7ююз376482 0.1 1023654
22:00+3ююв228369 0.0 102548
16 мая, вс
вс1601:00+4ююв238176 0.0 102465
04:00+4ю248393 0.0 1023126
07:00+6ю2882100 0.1 1021488
10:00+10ююз4864100 0.0 1018871
13:00+9ююз3875100 0.1 1017916
16:00+8ю2687100 0.7 1016300
19:00+8ю2689100 1.1 1014205
22:00+8ю269597 0.0 1014268